Onalaska, WI

6:25 PM CDT on September 25, 2016 (GMT -0500)
La Crosse Municipal

Weather History for KLSE - November, 2011

Change the Weather History Date:

Wednesday, November 23, 2011

  Actual Average Record
Temperature  
Mean Temperature 38 °F 32 °F  
Max Temperature 43 °F 39 °F 61 °F (1931)
Min Temperature 32 °F 24 °F -2 °F (1950)
Degree Days  
Heating Degree Days 27 33  
Month to date heating degree days 568 623  
Since 1 July heating degree days 1119 1251  
Cooling Degree Days 0 0  
Month to date cooling degree days 0 0  
Year to date cooling degree days 922 782  
Moisture  
Dew Point 34 °F    
Average Humidity 86    
Maximum Humidity 96    
Minimum Humidity 76    
Precipitation  
Precipitation 0.00 in 0.06 in 1.42 in (1999)
Month to date precipitation 0.69 1.55  
Year to date precipitation 33.47 31.24  
Snow  
Snow 0.00 in 0.20 in 13.00 in (1991)
Month to date snowfall 0.7 2.4  
Since 1 July snowfall 0.7 2.6  
Snow Depth 0.00 in    
Sea Level Pressure  
Sea Level Pressure 30.16 in    
Wind  
Wind Speed 7 mph (South)    
Max Wind Speed 16 mph    
Max Gust Speed 18 mph    
Visibility 5 miles    
Events      
T = Trace of Precipitation, MM = Missing Value Source: NWS Daily Summary

Daily Weather History Graph

Daily Weather History Graph

Search for Another Location

Airport or City:

Trip Planner

Search our weather history database for the weather conditions in past years. The results will help you decide how hot, cold, wet, or windy it might be!

Date:

Astronomy

Nov. 23, 2011 Rise Set
Actual Time 7:09 AM CST 4:32 PM CST
Civil Twilight 6:37 AM CST 5:04 PM CST
Nautical Twilight 6:02 AM CST 5:39 PM CST
Astronomical Twilight 5:28 AM CST 6:14 PM CST
Moon 5:12 AM CST (11/23) 3:15 PM CST (11/23)
Length of Visible Light 10h 26m
Length of Day
9h 23m
Waning Crescent, 3% of the Moon is Illuminated
Nov 23
Waning Crescent
Nov 25
New
Dec 2
First Quarter
Dec 10
Full
Dec 17
Last Quarter

Hourly Weather History & Observations

Time (CST) Temp. Windchill Dew Point Humidity Pressure Visibility Wind Dir Wind Speed Gust Speed Precip Events Conditions
12:50 AM 33.8 °F - 30.2 °F 87% 30.10 in 5.0 mi Calm Calm - N/A   Overcast
12:53 AM 33.1 °F - 30.9 °F 92% 30.13 in 4.0 mi Calm Calm - N/A   Overcast
1:53 AM 33.1 °F 30.0 °F 32.0 °F 96% 30.15 in 5.0 mi SE 3.5 mph - N/A   Overcast
2:53 AM 33.8 °F 30.8 °F 30.2 °F 87% 30.12 in 5.0 mi SE 3.5 mph - N/A   Overcast
3:53 AM 34.0 °F 31.0 °F 32.0 °F 92% 30.15 in 5.0 mi SE 3.5 mph - N/A   Overcast
4:53 AM 33.8 °F 30.8 °F 32.0 °F 93% 30.14 in 5.0 mi SSE 3.5 mph - N/A   Overcast
6:53 AM 35.1 °F 29.3 °F 32.0 °F 89% 30.19 in 5.0 mi South 6.9 mph - N/A   Overcast
7:53 AM 35.1 °F 30.1 °F 33.1 °F 92% 30.19 in 3.0 mi South 5.8 mph - N/A   Overcast
8:18 AM 35.6 °F 30.7 °F 33.8 °F 93% 30.16 in 2.5 mi South 5.8 mph - N/A   Overcast
8:50 AM 35.6 °F 30.7 °F 33.8 °F 93% 30.17 in 3.0 mi SSE 5.8 mph - N/A   Overcast
8:53 AM 36.0 °F 32.1 °F 33.1 °F 89% 30.20 in 3.0 mi South 4.6 mph - N/A   Overcast
9:53 AM 37.9 °F 34.4 °F 34.0 °F 86% 30.21 in 3.0 mi South 4.6 mph - N/A   Overcast
10:53 AM 39.9 °F 36.7 °F 35.1 °F 83% 30.21 in 4.0 mi South 4.6 mph - N/A   Haze
11:53 AM 42.1 °F 37.7 °F 36.0 °F 79% 30.20 in 4.0 mi SW 6.9 mph - N/A   Haze
12:53 PM 42.1 °F 35.7 °F 36.0 °F 79% 30.18 in 5.0 mi WSW 11.5 mph - N/A   Haze
1:53 PM 42.8 °F 35.8 °F 35.6 °F 76% 30.14 in 5.0 mi SSW 13.8 mph - N/A   Haze
2:53 PM 43.0 °F 38.8 °F 36.0 °F 76% 30.16 in 6.0 mi SSW 6.9 mph - N/A   Haze
3:53 PM 42.1 °F 35.7 °F 36.0 °F 79% 30.16 in 7.0 mi South 11.5 mph - N/A   Overcast
4:53 PM 41.0 °F 35.8 °F 36.0 °F 82% 30.16 in 7.0 mi SSW 8.1 mph - N/A   Overcast
5:53 PM 41.0 °F 35.2 °F 36.0 °F 82% 30.17 in 6.0 mi South 9.2 mph - N/A   Haze
6:41 PM 41.0 °F 34.7 °F 35.6 °F 81% 30.14 in 6.0 mi South 10.4 mph - N/A   Haze
6:53 PM 41.0 °F 35.2 °F 36.0 °F 82% 30.17 in 6.0 mi South 9.2 mph - N/A   Haze
7:53 PM 41.0 °F 35.2 °F 36.0 °F 82% 30.15 in 5.0 mi South 9.2 mph - N/A   Haze
8:53 PM 41.0 °F 35.2 °F 37.4 °F 87% 30.13 in 6.0 mi South 9.2 mph - N/A   Overcast
9:53 PM 41.0 °F 36.4 °F 37.0 °F 86% 30.15 in 5.0 mi SSE 6.9 mph - N/A   Overcast
10:53 PM 41.0 °F 33.9 °F 37.0 °F 86% 30.15 in 5.0 mi SSW 12.7 mph - N/A   Overcast
11:53 PM 41.0 °F 34.7 °F 37.0 °F 86% 30.15 in 6.0 mi SSW 10.4 mph - N/A   Overcast